Location: Bannatyne
(13.0833°N, 59.5333°W)
Time: 18:18:08
(UTC+00:00)

SR - All Passes

Search period start: 29 January 2020 00:00
Search period end: 08 February 2020 00:00
Orbit: 574 x 882 km, 66.7° (Epoch: 28 January)

Date Brightness Start Highest point End Pass type
(mag) Time Alt. Az. Time Alt. Az. Time Alt. Az.
29 Jan - 00:42:27 10° SW 00:47:37 40° WNW 00:53:04 10° N visible
29 Jan - 11:21:00 10° NNW 11:26:00 79° WSW 11:30:32 10° SSE daylight
29 Jan - 23:52:26 10° SSW 23:57:56 87° ESE 00:03:49 10° NNE visible
30 Jan - 10:31:43 10° N 10:36:20 37° ENE 10:40:35 10° SE daylight
30 Jan - 12:16:34 10° W 12:17:51 11° WSW 12:19:06 10° WSW daylight
30 Jan - 23:03:25 10° S 23:08:25 36° ESE 23:13:42 10° NE visible
31 Jan - 00:46:34 10° WSW 00:50:28 19° WNW 00:54:30 10° NNW visible
31 Jan - 09:43:45 10° NNE 09:46:29 15° ENE 09:49:06 10° E visible
31 Jan - 11:24:12 10° NW 11:28:29 30° WSW 11:32:28 10° S daylight
31 Jan - 22:15:55 10° SE 22:19:00 15° ESE 22:22:10 10° ENE visible
31 Jan - 23:55:23 10° SW 00:00:39 43° WNW 00:06:12 10° N visible
01 Feb - 10:34:02 10° NNW 10:39:00 87° WSW 10:43:32 10° SSE daylight
01 Feb - 23:05:28 10° SSW 23:10:59 81° ESE 23:16:51 10° NNE visible
02 Feb - 09:44:51 10° N 09:49:20 34° ENE 09:53:29 10° SE visible
02 Feb - 11:29:05 10° W 11:30:53 12° WSW 11:32:40 10° SW daylight
02 Feb - 22:16:32 10° S 22:21:29 34° ESE 22:26:40 10° NE visible
02 Feb - 23:59:22 10° WSW 00:03:29 21° WNW 00:07:45 10° NNW visible
03 Feb - 08:57:09 10° NNE 08:59:29 13° ENE 09:01:44 10° E visible
03 Feb - 10:37:09 10° NW 10:41:31 33° WSW 10:45:34 10° S daylight
03 Feb - 21:29:17 10° SE 21:32:04 14° ESE 21:34:54 10° ENE daylight
03 Feb - 23:08:20 10° SW 23:13:41 47° WNW 23:19:18 10° N visible
04 Feb - 09:47:05 10° NNW 09:52:02 86° ENE 09:56:32 10° SSE visible
04 Feb - 22:18:30 10° SSW 22:24:02 75° ESE 22:29:54 10° NNE visible
05 Feb - 08:57:59 10° N 09:02:20 31° ENE 09:06:21 10° SE visible
05 Feb - 10:41:43 10° WNW 10:43:55 13° WSW 10:46:04 10° SW daylight
05 Feb - 21:29:41 10° SSE 21:34:32 31° ESE 21:39:37 10° NE daylight
05 Feb - 23:12:11 10° WSW 23:16:30 22° WNW 23:20:58 10° NNW visible
06 Feb - 08:10:37 10° NE 08:12:27 12° ENE 08:14:15 10° E visible
06 Feb - 09:50:07 10° NW 09:54:33 36° WSW 09:58:40 10° S visible
06 Feb - 20:42:44 10° SE 20:45:07 13° ESE 20:47:34 10° E daylight
06 Feb - 22:21:17 10° SW 22:26:43 51° WNW 22:32:25 10° N visible
07 Feb - 09:00:08 10° NNW 09:05:02 78° ENE 09:09:31 10° SSE visible
07 Feb - 21:31:32 10° SSW 21:37:05 70° ESE 21:42:56 10° NNE daylight
